Location: Newark
(48.7875°N, 2.3928°E)
Time: 16:44:33
(UTC+00:00)

N. Korean satellite - Pass Details

Date: 26 October 2019
Orbit: 456 x 506 km, 97.2° (Epoch: 12 November)

Event Time Altitude Azimuth Distance (km) Brightness Sun altitude
Rises 05:21:05 0° 19° (NNE) 2,578 10.4 -11.4°
Reaches altitude 10° 05:23:16 10° 28° (NNE) 1,699 9.6 -11.1°
Maximum altitude 05:26:41 37° 97° (E) 795 8.4 -10.5°
Drops below altitude 10° 05:30:07 10° 166° (SSE) 1,706 9.6 -10.0°
Sets 05:32:19 0° 175° (S) 2,589 10.4 -9.6°
